1515225600.0,14457,8.94,72990.0,-0.57,-26.87,-26.65,0,*6D
1515225601.2,14458,8.94,72988.8,-0.57,-27.03,-26.87,0,*63
1515225602.42,14459,8.94,72990.3,-0.57,-26.87,-26.71,0,*66
1515225603.64,14460,8.94,72990.5,-0.57,-26.87,-26.71,0,*6C
1515225604.89,14461,8.94,72994.5,-0.57,-26.97,-26.71,0,*6C
1515225606.15,14462,8.94,72992.0,-0.59,-27.03,-26.81,0,*62
1515225607.4,14463,8.94,72994.8,-0.57,-26.81,-26.55,0,*6F
1515225608.64,14464,8.94,72994.5,-0.57,-26.81,-26.65,0,*6B
1515225609.83,14465,8.94,72992.0,-0.57,-27.03,-26.87,0,*6D
1515225611.06,14466,8.94,72992.0,-0.57,-27.03,-26.97,0,*6F
1515225612.26,14467,8.94,72998.8,-0.57,-27.03,-26.87,0,*6F
1515225613.49,14468,8.94,72996.3,-0.57,-26.87,-26.81,0,*6B
1515225614.77,14469,8.94,73000.0,-0.59,-26.81,-26.55,0,*6B
1515225616.02,14470,8.94,72996.5,-0.57,-26.81,-26.55,0,*6D
1515225617.25,14471,8.94,72996.0,-0.57,-26.81,-26.65,0,*6F
1515225618.5,14472,8.94,72998.8,-0.57,-26.81,-26.55,0,*6F
1515225619.73,14473,8.94,73000.0,-0.57,-26.81,-26.49,0,*63
1515225620.95,14474,8.94,72992.0,-0.57,-26.71,-26.49,0,*6B
1515225622.17,14475,8.94,72988.0,-0.57,-26.71,-26.65,0,*64
1515225623.37,14476,8.94,72990.3,-0.57,-26.87,-26.65,0,*6E
1515225624.62,14477,8.94,72988.3,-0.57,-26.81,-26.55,0,*6A
1515225625.85,14478,8.94,72996.3,-0.57,-26.81,-26.49,0,*68
1515225627.11,14479,8.94,72998.0,-0.59,-26.81,-26.49,0,*67
1515225628.33,14480,8.94,72990.0,-0.57,-26.81,-26.49,0,*6F
1515225629.54,14481,8.94,72994.8,-0.57,-26.65,-26.39,0,*63
1515225630.74,14482,8.94,72994.3,-0.57,-26.49,-26.23,0,*65
1515225632.0,14483,8.94,72994.5,-0.55,-26.49,-26.29,0,*6C
1515225633.22,14484,8.94,72998.3,-0.55,-26.61,-26.45,0,*6B
1515225634.47,14485,8.94,72992.8,-0.55,-26.61,-26.33,0,*6B
1515225635.72,14486,8.94,72998.0,-0.55,-26.61,-26.33,0,*68
1515225636.98,14487,8.94,72996.5,-0.55,-26.61,-26.33,0,*69
1515225638.2,14488,8.94,73000.8,-0.55,-26.61,-26.45,0,*67
1515225639.43,14489,8.94,72996.3,-0.55,-26.65,-26.45,0,*62
1515225640.63,14490,8.94,72998.8,-0.53,-26.65,-26.45,0,*6C
1515225641.86,14491,8.94,72998.0,-0.53,-26.61,-26.33,0,*68
1515225643.14,14492,8.94,72996.5,-0.55,-26.77,-26.33,0,*6A
1515225644.35,14493,8.94,72996.5,-0.53,-26.65,-26.45,0,*6F
1515225645.63,14494,8.94,73000.8,-0.55,-26.81,-26.77,0,*65
1515225646.88,14495,8.94,72998.5,-0.55,-26.49,-26.33,0,*60
1515225648.11,14496,8.94,72996.3,-0.53,-26.45,-26.17,0,*6F
1515225649.36,14497,8.94,72996.8,-0.55,-26.61,-26.33,0,*68
1515225650.64,14498,8.94,72992.3,-0.55,-26.33,-26.29,0,*6B
1515225651.93,14499,8.94,72994.5,-0.55,-26.33,-26.29,0,*6A
1515225653.15,14500,8.94,72998.8,-0.53,-26.49,-26.29,0,*60
1515225654.38,14501,8.94,72998.5,-0.53,-26.49,-26.29,0,*61
1515225655.61,14502,9.0,73000.5,-0.53,-26.45,-26.17,0,*63
1515225656.84,14503,8.94,73002.0,-0.53,-26.61,-26.33,0,*62
1515225658.07,14504,9.0,73000.5,-0.53,-26.45,-26.33,0,*63
1515225659.32,14505,8.94,72998.3,-0.55,-26.49,-26.33,0,*68
1515225660.55,14506,8.94,72996.3,-0.53,-26.49,-26.33,0,*6D
1515225661.78,14507,9.0,73000.3,-0.53,-26.45,-26.33,0,*60
1515225663.04,14508,8.94,73000.5,-0.53,-26.33,-26.33,0,*6E
1515225664.24,14509,9.0,73002.8,-0.53,-26.65,-26.61,0,*6B
1515225665.47,14510,8.94,73002.0,-0.51,-26.61,-26.45,0,*63
1515225666.67,14511,9.0,73002.5,-0.53,-26.49,-26.45,0,*6A
1515225667.92,14512,9.0,73006.5,-0.53,-26.29,-26.13,0,*6C
1515225669.15,14513,9.0,73004.8,-0.53,-26.45,-26.33,0,*65
1515225670.4,14514,9.0,73004.8,-0.55,-26.45,-26.33,0,*64
1515225671.63,14515,9.0,72998.3,-0.53,-26.61,-26.33,0,*65
1515225672.88,14516,9.0,73000.5,-0.53,-26.29,-26.17,0,*6C
1515225674.08,14517,8.94,72998.8,-0.49,-26.39,-26.23,0,*60
1515225675.32,14518,8.94,72996.5,-0.49,-26.39,-26.29,0,*65
1515225676.55,14519,9.0,72998.3,-0.51,-26.45,-26.39,0,*67
1515225677.78,14520,9.0,72992.8,-0.49,-26.55,-26.39,0,*65
1515225678.99,14521,9.0,72994.0,-0.49,-26.45,-26.39,0,*65
1515225680.22,14522,9.0,72998.8,-0.49,-26.61,-26.55,0,*6A
1515225681.44,14523,9.0,73002.5,-0.51,-26.45,-26.45,0,*65
1515225682.69,14524,9.0,72998.3,-0.51,-26.55,-26.45,0,*63
1515225683.94,14525,9.0,72992.5,-0.51,-26.55,-26.45,0,*62
1515225685.14,14526,9.0,72992.5,-0.49,-26.61,-26.45,0,*6F
1515225686.39,14527,9.0,72996.3,-0.49,-26.55,-26.55,0,*68
1515225687.64,14528,9.0,72996.5,-0.51,-26.61,-26.55,0,*69
1515225688.87,14529,9.0,73000.8,-0.51,-26.61,-26.61,0,*6F
1515225690.09,14530,9.0,72996.0,-0.49,-26.55,-26.45,0,*6F
1515225691.32,14531,9.0,72996.0,-0.49,-26.61,-26.71,0,*6E
1515225692.57,14532,9.0,73000.3,-0.51,-26.71,-26.61,0,*64
1515225693.8,14533,9.0,72998.8,-0.49,-26.55,-26.61,0,*6A
1515225695.06,14534,9.0,73002.3,-0.49,-26.77,-26.77,0,*6A
1515225696.26,14535,9.0,73000.3,-0.49,-26.39,-26.45,0,*60
1515225697.49,14536,9.0,73000.5,-0.51,-26.39,-26.45,0,*6A
1515225698.72,14537,9.0,73004.0,-0.49,-26.39,-26.29,0,*68
1515225699.97,14538,9.0,73000.0,-0.51,-26.55,-26.61,0,*68
1515225701.23,14539,9.0,73000.8,-0.51,-26.29,-26.39,0,*6F
1515225702.46,14540,9.0,73000.5,-0.49,-26.61,-26.77,0,*6E
1515225703.68,14541,9.0,73006.3,-0.49,-26.71,-26.61,0,*69
1515225704.91,14542,9.0,73000.0,-0.49,-26.61,-26.77,0,*6C
1515225706.15,14543,9.0,72998.0,-0.49,-26.77,-26.87,0,*65
1515225707.35,14544,9.0,73002.5,-0.49,-26.61,-26.61,0,*6D
1515225708.58,14545,9.0,73002.3,-0.51,-26.61,-26.61,0,*65
1515225709.78,14546,9.0,73000.5,-0.49,-26.39,-26.45,0,*64
1515225711.01,14547,9.0,72998.3,-0.47,-26.39,-26.39,0,*60
1515225712.24,14548,9.0,73002.5,-0.49,-26.61,-26.71,0,*60
1515225713.47,14549,9.0,73002.5,-0.49,-26.93,-27.13,0,*69
1515225714.72,14550,9.0,73002.3,-0.49,-27.23,-27.23,0,*68
1515225716.01,14551,9.0,73002.8,-0.51,-26.97,-27.23,0,*6E
1515225717.26,14552,9.0,73004.3,-0.51,-26.97,-27.13,0,*6E
1515225718.5,14553,9.0,73002.3,-0.49,-26.97,-27.07,0,*63
1515225719.7,14554,9.0,73004.3,-0.49,-26.61,-26.61,0,*6C
1515225720.93,14555,9.0,73006.3,-0.49,-26.71,-26.87,0,*64
1515225722.18,14556,9.0,73000.5,-0.51,-26.71,-26.87,0,*6E
1515225723.44,14557,9.0,72996.8,-0.49,-26.77,-26.97,0,*61
1515225724.67,14558,9.0,72998.5,-0.49,-26.71,-26.87,0,*69
1515225725.92,14559,9.0,72996.3,-0.51,-27.23,-27.29,0,*62
1515225727.15,14560,9.0,73002.3,-0.51,-27.07,-27.13,0,*67
1515225728.41,14561,9.0,73004.8,-0.49,-26.71,-26.77,0,*6C
1515225729.64,14562,9.0,73002.0,-0.49,-26.87,-26.97,0,*68
1515225730.87,14563,9.0,72996.3,-0.49,-26.93,-27.07,0,*64
1515225732.12,14564,9.0,73004.0,-0.51,-26.93,-27.13,0,*6F
1515225733.37,14565,9.0,73002.8,-0.49,-26.71,-26.71,0,*6E
1515225734.62,14566,9.0,73000.3,-0.49,-26.55,-26.71,0,*6B
1515225735.87,14567,9.0,73002.3,-0.51,-26.61,-26.71,0,*64
1515225737.1,14568,9.0,73000.5,-0.49,-26.77,-26.87,0,*6C
1515225738.38,14569,9.06,73010.3,-0.51,-26.71,-26.77,0,*6D
1515225739.63,14570,9.0,73002.3,-0.51,-26.61,-26.77,0,*64
1515225740.86,14571,9.06,72998.8,-0.49,-26.61,-26.71,0,*6A
1515225742.06,14572,9.0,72994.0,-0.49,-26.61,-26.61,0,*68
1515225743.29,14573,9.0,72998.8,-0.49,-26.45,-26.55,0,*68
1515225744.55,14574,9.0,72994.5,-0.49,-26.77,-26.93,0,*64
1515225745.78,14575,9.06,73004.0,-0.49,-26.71,-26.87,0,*66
1515225747.02,14576,9.0,72998.5,-0.47,-26.71,-26.87,0,*6B
1515225748.28,14577,9.0,73000.3,-0.47,-27.07,-27.19,0,*6C
1515225749.53,14578,9.06,73004.5,-0.47,-27.07,-27.19,0,*63
1515225750.76,14579,9.06,73004.8,-0.47,-26.65,-26.87,0,*61
1515225752.0,14580,9.0,73004.8,-0.47,-26.55,-26.65,0,*68
1515225753.23,14581,9.06,73008.3,-0.47,-26.87,-27.07,0,*63
1515225754.47,14582,9.06,73010.5,-0.47,-26.87,-27.19,0,*6F
1515225755.7,14583,9.06,73010.0,-0.47,-27.03,-27.03,0,*68
1515225756.96,14584,9.06,73012.0,-0.47,-26.81,-27.03,0,*64
1515225758.18,14585,9.06,73014.5,-0.45,-26.65,-26.71,0,*69
1515225759.44,14586,9.06,73012.5,-0.47,-26.65,-26.81,0,*67
1515225760.7,14587,9.06,73010.8,-0.47,-26.93,-27.03,0,*64
1515225761.95,14588,9.06,73012.0,-0.47,-26.93,-27.03,0,*6B
1515225763.18,14589,9.06,73008.0,-0.45,-26.65,-26.71,0,*65
1515225764.43,14590,9.06,73012.0,-0.47,-26.65,-26.71,0,*6F
1515225765.64,14591,9.06,73012.0,-0.45,-26.65,-26.87,0,*65
1515225766.89,14592,9.06,73006.3,-0.47,-26.71,-26.87,0,*61
1515225768.14,14593,9.06,73006.0,-0.45,-26.55,-26.81,0,*62
1515225769.36,14594,9.06,73006.8,-0.45,-26.49,-26.55,0,*61
1515225770.61,14595,9.06,73008.0,-0.45,-26.55,-26.81,0,*64
1515225771.86,14596,9.06,73004.5,-0.45,-26.55,-26.55,0,*6E
1515225773.08,14597,9.06,73006.8,-0.45,-26.39,-26.55,0,*65
1515225774.31,14598,9.06,73004.3,-0.39,-26.45,-26.61,0,*6D
1515225775.54,14599,9.06,73010.0,-0.43,-26.49,-26.61,0,*6D
1515225776.76,14600,9.06,73004.0,-0.43,-26.45,-26.61,0,*62
1515225778.01,14601,9.06,73006.3,-0.39,-26.55,-26.61,0,*6F
1515225779.26,14602,9.06,73004.3,-0.43,-26.61,-26.77,0,*61
1515225780.51,14603,9.06,73002.0,-0.39,-26.55,-26.61,0,*6D
1515225781.78,14604,9.06,73004.8,-0.39,-26.55,-26.77,0,*6D
1515225783.04,14605,9.06,73002.3,-0.43,-26.65,-26.81,0,*6B
1515225784.29,14606,9.06,73004.3,-0.39,-26.61,-26.93,0,*62
1515225785.56,14607,9.06,72996.8,-0.39,-26.71,-26.97,0,*66
1515225786.82,14608,9.06,72998.3,-0.37,-26.77,-26.97,0,*61
1515225788.11,14609,9.06,73000.3,-0.39,-26.81,-26.97,0,*67
1515225789.39,14610,9.06,72998.5,-0.39,-26.77,-26.93,0,*62
1515225790.64,14611,9.06,73000.8,-0.37,-26.77,-26.97,0,*69
1515225791.84,14612,9.06,73000.0,-0.37,-26.87,-27.07,0,*6D
1515225793.07,14613,9.06,72996.0,-0.37,-26.93,-27.07,0,*69
1515225794.3,14614,9.06,72996.8,-0.37,-27.07,-27.23,0,*64
1515225795.53,14615,9.06,73002.5,-0.37,-26.93,-27.07,0,*6F
1515225796.76,14616,9.06,73000.3,-0.37,-26.93,-27.07,0,*6C
1515225798.01,14617,9.06,72996.3,-0.37,-26.71,-26.97,0,*69
1515225799.21,14618,9.06,72996.0,-0.37,-27.07,-27.13,0,*6B
1515225800.44,14619,9.06,72996.3,-0.37,-26.93,-27.13,0,*66
1515225801.69,14620,9.06,72996.8,-0.35,-26.93,-27.07,0,*6B
1515225802.92,14621,9.06,72996.8,-0.37,-26.93,-27.07,0,*68
1515225804.2,14622,9.06,72998.3,-0.35,-26.71,-26.93,0,*69
1515225805.45,14623,9.06,72996.0,-0.35,-26.65,-26.93,0,*6D
1515225806.73,14624,9.06,73002.8,-0.35,-26.71,-26.93,0,*6F
1515225807.98,14625,9.06,72998.0,-0.35,-27.03,-27.19,0,*69
1515225809.24,14626,9.06,72998.3,-0.35,-27.07,-27.35,0,*60
1515225810.47,14627,9.06,72998.0,-0.37,-26.81,-27.07,0,*6D
1515225811.74,14628,9.13,73000.0,-0.35,-26.71,-26.93,0,*63
1515225813.02,14629,9.06,72998.5,-0.35,-26.77,-26.93,0,*64
1515225814.3,14630,9.06,72996.0,-0.35,-27.19,-27.35,0,*68
1515225815.55,14631,9.13,73000.0,-0.35,-27.07,-27.23,0,*61
1515225816.78,14632,9.13,72998.8,-0.35,-26.87,-27.03,0,*69
1515225818.01,14633,9.13,72994.8,-0.35,-26.87,-27.03,0,*68
1515225819.23,14634,9.13,72990.3,-0.35,-26.87,-27.07,0,*6B
1515225820.48,14635,9.13,72996.8,-0.31,-26.71,-27.03,0,*63
1515225821.68,14636,9.13,72996.0,-0.33,-26.87,-27.07,0,*6F
1515225822.95,14637,9.13,73000.5,-0.31,-27.19,-27.45,0,*6C
1515225824.18,14638,9.13,73000.0,-0.33,-27.07,-27.39,0,*65
1515225825.42,14639,9.13,72992.5,-0.33,-26.77,-27.03,0,*6B
1515225826.62,14640,9.06,72992.5,-0.33,-26.87,-27.07,0,*6E
1515225827.86,14641,9.13,73002.0,-0.33,-26.77,-27.03,0,*64
1515225829.08,14642,9.13,72996.8,-0.31,-26.87,-27.13,0,*6B
1515225830.33,14643,9.13,72998.3,-0.31,-27.29,-27.45,0,*6C
1515225831.56,14644,9.13,72992.5,-0.31,-27.03,-27.29,0,*69
1515225832.81,14645,9.13,73000.8,-0.33,-27.19,-27.39,0,*60
1515225834.09,14646,9.13,72992.5,-0.31,-27.35,-27.61,0,*62
1515225835.34,14647,9.13,72996.5,-0.33,-27.39,-27.83,0,*61
1515225836.54,14648,9.13,72998.0,-0.33,-27.51,-27.67,0,*6A
1515225837.78,14649,9.13,72992.0,-0.33,-27.07,-27.23,0,*68
1515225839.03,14650,9.13,72996.0,-0.33,-26.93,-27.19,0,*65
1515225840.29,14651,9.13,73000.8,-0.31,-27.13,-27.35,0,*61
1515225841.51,14652,9.13,72994.3,-0.33,-27.35,-27.51,0,*66
1515225842.74,14653,9.13,72998.5,-0.33,-27.35,-27.55,0,*63
1515225843.96,14654,9.13,72992.5,-0.33,-27.23,-27.55,0,*63
1515225845.19,14655,9.13,72996.5,-0.31,-27.29,-27.51,0,*6E
1515225846.45,14656,9.13,72998.0,-0.31,-27.35,-27.67,0,*65
1515225847.68,14657,9.13,72996.0,-0.33,-27.35,-27.67,0,*66
1515225848.9,14658,9.13,72996.3,-0.33,-27.35,-27.51,0,*6C
1515225850.15,14659,9.13,73000.8,-0.31,-27.29,-27.45,0,*67
1515225851.36,14660,9.13,72998.5,-0.33,-27.51,-27.67,0,*60
1515225852.56,14661,9.13,73002.3,-0.33,-27.55,-27.89,0,*65
1515225853.77,14662,9.13,72994.5,-0.33,-27.51,-27.67,0,*62
1515225854.99,14663,9.13,72994.5,-0.33,-27.35,-27.71,0,*66
1515225856.28,14664,9.19,72992.5,-0.31,-27.61,-27.83,0,*6F
1515225857.49,14665,9.13,72986.8,-0.33,-27.51,-27.67,0,*65
1515225858.69,14666,9.13,72994.5,-0.33,-27.55,-27.89,0,*62
1515225859.92,14667,9.13,72994.5,-0.33,-27.39,-27.67,0,*69
1515225861.15,14668,9.13,72994.3,-0.33,-27.39,-27.55,0,*67
1515225862.38,14669,9.13,72994.3,-0.33,-27.39,-27.67,0,*67
1515225863.58,14670,9.13,72988.5,-0.33,-27.51,-27.71,0,*66
1515225864.81,14671,9.13,72992.5,-0.33,-27.23,-27.55,0,*64
1515225866.06,14672,9.13,72990.3,-0.33,-27.35,-27.39,0,*6A
1515225867.32,14673,9.13,72988.3,-0.33,-27.23,-27.35,0,*60
1515225868.55,14674,9.13,72994.8,-0.33,-27.07,-27.35,0,*61
1515225869.78,14675,9.13,72994.8,-0.33,-27.23,-27.51,0,*64
1515225871.01,14676,9.19,72996.8,-0.33,-27.39,-27.71,0,*6E
1515225872.21,14677,9.13,72996.0,-0.33,-27.55,-27.89,0,*62
1515225873.47,14678,9.13,72996.3,-0.31,-27.35,-27.67,0,*69
1515225874.69,14679,9.19,72996.0,-0.33,-27.39,-27.55,0,*67
1515225875.92,14680,9.19,72996.0,-0.33,-27.39,-27.55,0,*61
1515225877.15,14681,9.19,72992.5,-0.33,-27.23,-27.51,0,*6F
1515225878.38,14682,9.19,72994.5,-0.33,-27.03,-27.23,0,*6B
1515225879.63,14683,9.19,72992.5,-0.31,-26.97,-27.13,0,*67
1515225880.84,14684,9.19,72994.3,-0.33,-27.03,-27.07,0,*6B
1515225882.07,14685,9.19,72996.3,-0.33,-27.03,-27.23,0,*6C
1515225883.3,14686,9.19,72992.5,-0.31,-27.03,-27.29,0,*67
1515225884.52,14687,9.19,72994.5,-0.31,-26.87,-27.13,0,*62
1515225885.75,14688,9.19,72994.0,-0.31,-26.87,-27.03,0,*6C
1515225886.98,14689,9.19,72994.0,-0.31,-27.29,-27.51,0,*6F
1515225888.23,14690,9.19,72992.3,-0.31,-27.03,-27.19,0,*63
1515225889.5,14691,9.19,72992.5,-0.31,-27.19,-27.35,0,*67
1515225890.75,14692,9.19,72994.5,-0.31,-26.87,-26.97,0,*6B
1515225892.03,14693,9.19,72996.0,-0.31,-26.97,-27.19,0,*6C
1515225893.32,14694,9.19,72994.8,-0.31,-26.97,-27.19,0,*6B
1515225894.55,14695,9.19,72994.3,-0.31,-27.03,-27.29,0,*65
1515225895.8,14696,9.19,72994.8,-0.31,-26.97,-27.13,0,*63
1515225897.06,14697,9.19,72994.0,-0.31,-26.97,-27.13,0,*62
1515225898.31,14698,9.19,72992.8,-0.31,-27.13,-27.45,0,*63
1515225899.56,14699,9.19,72990.5,-0.29,-27.39,-27.61,0,*65
1515225900.79,14700,9.19,72988.8,-0.29,-27.39,-27.71,0,*65
1515225902.0,14701,9.19,72992.0,-0.29,-27.29,-27.55,0,*63
1515225903.25,14702,9.19,72994.3,-0.29,-27.39,-27.61,0,*66
1515225904.47,14703,9.19,72996.3,-0.29,-27.13,-27.45,0,*69
1515225905.7,14704,9.19,72992.5,-0.29,-27.13,-27.39,0,*65
1515225906.95,14705,9.19,72996.3,-0.29,-27.23,-27.45,0,*6C
1515225908.16,14706,9.19,73002.3,-0.29,-27.29,-27.55,0,*64
1515225909.39,14707,9.19,72994.3,-0.29,-27.29,-27.61,0,*62
1515225910.62,14708,9.19,72992.3,-0.29,-27.39,-27.77,0,*6B
1515225911.85,14709,9.19,72994.3,-0.29,-27.29,-27.61,0,*6C
1515225913.06,14710,9.19,72990.8,-0.29,-27.29,-27.55,0,*63
1515225914.29,14711,9.19,72994.5,-0.29,-27.45,-27.71,0,*6E
1515225915.53,14712,9.19,72988.3,-0.29,-27.29,-27.61,0,*66
1515225916.78,14713,9.19,72980.5,-0.27,-27.45,-27.71,0,*62
1515225918.0,14714,9.19,72976.3,-0.29,-27.39,-27.71,0,*60
1515225919.25,14715,9.19,72970.0,-0.31,-27.51,-27.83,0,*6B
1515225920.51,14716,9.19,72974.5,-0.31,-27.51,-27.83,0,*68
1515225921.76,14717,9.19,72978.3,-0.31,-27.45,-27.77,0,*67
1515225923.01,14718,9.19,72978.8,-0.31,-27.45,-27.77,0,*68
1515225924.29,14719,9.19,72978.8,-0.31,-27.45,-27.83,0,*62
1515225925.54,14720,9.19,72978.0,-0.31,-27.45,-27.77,0,*63
1515225926.74,14721,9.19,72980.3,-0.33,-27.51,-27.77,0,*65
1515225927.95,14722,9.19,72984.0,-0.29,-27.29,-27.55,0,*62
1515225929.22,14723,9.19,72986.5,-0.31,-27.35,-27.61,0,*60
1515225930.47,14724,9.19,72984.5,-0.31,-27.35,-27.77,0,*60
1515225931.67,14725,9.19,72986.8,-0.33,-27.55,-27.89,0,*64
1515225932.94,14726,9.25,72994.3,-0.31,-27.35,-27.61,0,*65
1515225934.18,14727,9.25,72998.0,-0.29,-27.29,-27.61,0,*60
1515225935.44,14728,9.19,72988.5,-0.31,-27.45,-27.67,0,*6A
1515225936.69,14729,9.19,72992.3,-0.31,-27.13,-27.39,0,*63
1515225937.92,14730,9.25,72992.8,-0.31,-27.29,-27.51,0,*6C
1515225939.17,14731,9.25,72996.0,-0.31,-27.29,-27.45,0,*68
1515225940.4,14732,9.25,72996.8,-0.31,-27.13,-27.29,0,*68
1515225941.63,14733,9.25,72996.3,-0.29,-27.07,-27.39,0,*64
1515225942.89,14734,9.25,72996.0,-0.31,-27.13,-27.35,0,*63
1515225944.14,14735,9.25,72998.5,-0.31,-27.13,-27.35,0,*62
1515225945.4,14736,9.25,72994.3,-0.31,-27.29,-27.61,0,*69
1515225946.64,14737,9.25,72992.8,-0.29,-26.97,-27.29,0,*69
1515225947.87,14738,9.25,72998.8,-0.29,-26.81,-27.07,0,*6D
1515225949.12,14739,9.25,73000.0,-0.27,-27.23,-27.55,0,*6C
1515225950.34,14740,9.25,72996.5,-0.27,-27.07,-27.55,0,*64
1515225951.54,14741,9.25,72992.8,-0.29,-27.13,-27.55,0,*6E
1515225952.8,14742,9.25,72994.5,-0.29,-26.97,-27.23,0,*61
1515225954.04,14743,9.25,72994.5,-0.29,-26.93,-27.29,0,*6E
1515225955.27,14744,9.25,73000.0,-0.29,-26.81,-27.13,0,*63
1515225956.54,14745,9.25,72998.8,-0.27,-27.23,-27.45,0,*66
1515225957.79,14746,9.25,72998.0,-0.27,-27.13,-27.39,0,*6D
1515225959.05,14747,9.25,72996.8,-0.27,-26.97,-27.29,0,*60
1515225960.3,14748,9.25,72998.8,-0.27,-27.13,-27.39,0,*63
1515225961.57,14749,9.25,72998.8,-0.27,-27.23,-27.39,0,*61
1515225962.8,14750,9.25,72992.8,-0.27,-27.07,-27.29,0,*6E
1515225964.05,14751,9.25,72998.8,-0.27,-26.93,-27.13,0,*6A
1515225965.31,14752,9.25,72998.3,-0.27,-26.93,-27.29,0,*60
1515225966.56,14753,9.25,73002.0,-0.27,-27.07,-27.39,0,*6C
1515225967.79,14754,9.25,73000.0,-0.27,-27.29,-27.71,0,*6B
1515225969.06,14755,9.25,73000.8,-0.27,-27.23,-27.45,0,*67
1515225970.31,14756,9.25,73002.5,-0.27,-26.93,-27.29,0,*64
1515225971.54,14757,9.25,72998.0,-0.25,-27.03,-27.23,0,*65
1515225972.77,14758,9.25,72996.8,-0.25,-27.03,-27.19,0,*63
1515225974.0,14759,9.25,72998.0,-0.25,-27.03,-27.23,0,*6B
1515225975.2,14760,9.25,72998.5,-0.25,-27.07,-27.51,0,*60
1515225976.44,14761,9.25,72998.0,-0.25,-27.07,-27.35,0,*63
1515225977.67,14762,9.25,72998.8,-0.25,-27.07,-27.23,0,*67
1515225978.87,14763,9.25,72998.8,-0.25,-26.87,-27.07,0,*69
1515225980.09,14764,9.25,72996.8,-0.23,-26.87,-27.07,0,*68
1515225981.35,14765,9.25,72998.0,-0.25,-26.93,-27.19,0,*65
1515225982.59,14766,9.25,72996.0,-0.23,-27.03,-27.23,0,*61
1515225983.83,14767,9.25,72992.3,-0.23,-27.19,-27.51,0,*6E
1515225985.06,14768,9.25,72992.5,-0.25,-27.19,-27.51,0,*67
1515225986.28,14769,9.25,72992.8,-0.25,-27.19,-27.55,0,*62
1515225987.5,14770,9.25,72992.0,-0.25,-27.19,-27.51,0,*6E
1515225988.73,14771,9.25,72990.0,-0.25,-27.07,-27.39,0,*6E
1515225989.98,14772,9.25,72988.8,-0.23,-27.07,-27.35,0,*67
1515225991.22,14773,9.25,72992.3,-0.23,-27.19,-27.51,0,*6B
1515225992.45,14774,9.25,72994.0,-0.23,-27.51,-27.77,0,*64
1515225993.67,14775,9.25,72998.8,-0.23,-27.07,-27.51,0,*62
1515225994.92,14776,9.25,72998.3,-0.23,-27.19,-27.67,0,*6B
1515225996.12,14777,9.31,72998.8,-0.25,-27.07,-27.51,0,*66
1515225997.37,14778,9.25,72996.5,-0.23,-27.03,-27.23,0,*6E
1515225998.62,14779,9.25,73000.8,-0.23,-27.23,-27.55,0,*6C
1515225999.88,14780,9.31,73002.0,-0.23,-27.19,-27.39,0,*69
1515226001.13,14781,9.25,73000.8,-0.23,-27.23,-27.55,0,*6B
1515226002.36,14782,9.25,72998.8,-0.25,-27.23,-27.55,0,*6E
1515226003.6,14783,9.25,72996.5,-0.23,-27.19,-27.51,0,*64
1515226004.84,14784,9.25,72996.0,-0.23,-27.19,-27.67,0,*66
1515226006.09,14785,9.31,72998.5,-0.23,-27.23,-27.67,0,*6E
1515226007.34,14786,9.25,72996.8,-0.23,-27.23,-27.67,0,*6D
1515226008.59,14787,9.25,72994.3,-0.23,-27.23,-27.55,0,*6D
1515226009.83,14788,9.25,72998.3,-0.23,-27.19,-27.51,0,*6F
1515226011.1,14789,9.31,73000.8,-0.23,-27.19,-27.39,0,*60
1515226012.35,14790,9.31,72998.8,-0.23,-27.03,-27.39,0,*63
1515226013.59,14791,9.31,72998.8,-0.23,-27.19,-27.51,0,*67
1515226014.85,14792,9.31,72996.5,-0.23,-27.19,-27.39,0,*6A
1515226016.1,14793,9.31,73002.5,-0.23,-27.03,-27.39,0,*60
1515226017.34,14794,9.31,73002.0,-0.23,-27.19,-27.71,0,*60
1515226018.59,14795,9.31,72996.3,-0.23,-27.23,-27.67,0,*6F
1515226019.83,14796,9.31,73000.3,-0.23,-27.19,-27.55,0,*64
1515226021.05,14797,9.31,72994.8,-0.21,-27.03,-27.45,0,*6D
1515226022.29,14798,9.31,72994.8,-0.21,-26.97,-27.29,0,*64
1515226023.51,14799,9.31,72992.5,-0.21,-27.13,-27.61,0,*64
1515226024.73,14800,9.31,72998.5,-0.21,-27.19,-27.67,0,*67
1515226025.93,14801,9.31,73000.5,-0.21,-27.03,-27.29,0,*67
1515226027.15,14802,9.31,72994.0,-0.21,-27.13,-27.35,0,*68
1515226028.35,14803,9.31,72994.5,-0.21,-27.13,-27.51,0,*6B
1515226029.56,14804,9.31,72992.8,-0.21,-27.19,-27.51,0,*66
1515226030.81,14805,9.31,72992.8,-0.21,-27.19,-27.61,0,*64
1515226032.06,14806,9.31,72994.0,-0.17,-27.13,-27.45,0,*6E
1515226033.33,14807,9.31,72992.3,-0.17,-27.19,-27.61,0,*63
1515226034.59,14808,9.31,72992.3,-0.17,-27.35,-27.67,0,*64
1515226035.8,14809,9.31,72994.0,-0.21,-27.29,-27.67,0,*6D
1515226037.04,14810,9.31,72994.0,-0.17,-27.19,-27.51,0,*66
1515226038.28,14811,9.31,72992.0,-0.21,-27.61,-27.89,0,*68
1515226039.48,14812,9.31,72996.3,-0.21,-27.29,-27.71,0,*60
1515226040.73,14813,9.31,72998.5,-0.17,-27.35,-27.67,0,*6E
1515226041.93,14814,9.31,73002.5,-0.21,-27.51,-27.89,0,*6E
1515226043.2,14815,9.31,72998.3,-0.23,-27.19,-27.39,0,*6A
1515226044.4,14816,9.31,73002.0,-0.21,-27.13,-27.51,0,*6F
1515226045.63,14817,9.31,73000.5,-0.21,-26.97,-27.29,0,*6C
1515226046.87,14818,9.31,73000.0,-0.21,-27.19,-27.61,0,*68
1515226048.12,14819,9.31,73000.0,-0.17,-27.19,-27.51,0,*6F
1515226049.38,14820,9.31,72996.8,-0.17,-27.13,-27.35,0,*6D
1515226050.6,14821,9.31,72996.0,-0.21,-27.35,-27.67,0,*6A
1515226051.82,14822,9.31,72996.8,-0.21,-27.45,-27.71,0,*69
1515226053.04,14823,9.31,72996.8,-0.21,-27.19,-27.67,0,*66
1515226054.26,14824,9.31,72998.0,-0.21,-27.13,-27.45,0,*6B
1515226055.48,14825,9.31,73000.5,-0.21,-27.03,-27.45,0,*6B
1515226056.73,14826,9.31,72998.8,-0.17,-26.87,-27.19,0,*69
1515226057.96,14827,9.31,72994.3,-0.17,-26.87,-27.29,0,*6B
1515226059.23,14828,9.38,72996.8,-0.17,-26.97,-27.29,0,*65
1515226060.49,14829,9.31,72994.5,-0.17,-27.13,-27.35,0,*64
1515226061.69,14830,9.31,72992.5,-0.21,-27.29,-27.67,0,*67
1515226062.89,14831,9.31,72988.5,-0.21,-27.51,-27.71,0,*6E
1515226064.17,14832,9.31,72990.8,-0.17,-27.45,-27.83,0,*60
1515226065.41,14833,9.31,72996.3,-0.17,-27.51,-27.89,0,*6E
1515226066.64,14834,9.31,72994.3,-0.17,-27.71,-28.15,0,*61
1515226067.87,14835,9.31,72992.8,-0.21,-27.99,-28.31,0,*65
1515226069.09,14836,9.31,72996.3,-0.21,-27.83,-28.15,0,*6B
1515226070.33,14837,9.31,72996.0,-0.17,-27.51,-27.89,0,*6A
1515226071.55,14838,9.31,72996.5,-0.21,-27.45,-27.71,0,*62
1515226072.77,14839,9.31,72996.8,-0.21,-27.51,-27.83,0,*6B
1515226073.99,14840,9.31,72998.0,-0.21,-27.35,-27.67,0,*6D
1515226075.25,14841,9.31,72998.3,-0.17,-27.51,-27.83,0,*61
1515226076.47,14842,9.31,73000.5,-0.21,-27.45,-27.71,0,*6F
1515226077.67,14843,9.38,73000.3,-0.21,-27.03,-27.29,0,*61
1515226078.9,14844,9.31,72996.0,-0.21,-27.03,-27.35,0,*6B
1515226080.12,14845,9.31,72996.3,-0.21,-26.87,-27.19,0,*69
1515226081.34,14846,9.38,72996.3,-0.21,-26.81,-27.13,0,*66
1515226082.6,14847,9.31,72994.3,-0.17,-26.71,-27.03,0,*6C
1515226083.84,14848,9.31,72992.8,-0.17,-27.03,-27.29,0,*6F
1515226085.1,14849,9.38,72996.5,-0.17,-27.13,-27.35,0,*62
1515226086.35,14850,9.38,72998.5,-0.17,-27.35,-27.67,0,*69
1515226087.62,14851,9.38,72998.3,-0.17,-27.29,-27.61,0,*63
1515226088.9,14852,9.38,72992.3,-0.17,-26.71,-27.19,0,*63
1515226090.15,14853,9.38,72994.3,-0.17,-26.71,-27.03,0,*69
1515226091.39,14854,9.38,72998.5,-0.15,-26.77,-27.07,0,*6E
1515226092.62,14855,9.31,72992.5,-0.15,-26.77,-27.07,0,*6F
1515226093.85,14856,9.31,72996.5,-0.15,-26.97,-27.13,0,*67
1515226095.09,14857,9.38,73000.5,-0.15,-26.97,-27.29,0,*6F
1515226096.34,14858,9.31,72998.8,-0.13,-27.23,-27.55,0,*63
1515226097.59,14859,9.38,72996.3,-0.13,-27.13,-27.61,0,*66
1515226098.84,14860,9.38,72994.0,-0.15,-27.23,-27.61,0,*69
1515226100.1,14861,9.38,72992.5,-0.13,-27.23,-27.67,0,*68
1515226101.35,14862,9.38,72994.5,-0.15,-27.23,-27.61,0,*6B
1515226102.58,14863,9.38,72996.3,-0.15,-27.45,-27.67,0,*6C
1515226103.84,14864,9.38,72994.8,-0.15,-27.39,-27.61,0,*66